Ketchikan, AK

5:12 PM AKST on February 20, 2019 (GMT -0900)
Ketchikan International

Weather History for PAKT - January, 2019

Change the Weather History Date:

Friday, January 25, 2019

  Actual Average Record
Temperature  
Mean Temperature 44 °F -  
Max Temperature 46 °F 39 °F 49 °F (1961)
Min Temperature 43 °F 28 °F 0 °F (1997)
Degree Days  
Heating Degree Days 20    
Moisture  
Dew Point 44 °F    
Average Humidity 95    
Maximum Humidity 100    
Minimum Humidity 93    
Precipitation  
Precipitation 0.52 in - - ()
Sea Level Pressure  
Sea Level Pressure 30.22 in    
Wind  
Wind Speed 17 mph (SE)    
Max Wind Speed 25 mph    
Max Gust Speed 36 mph    
Visibility 3 miles    
Events Rain    
Averages and records for this station are not official NWS values.
T = Trace of Precipitation, MM = Missing Value Source: NWS Daily Summary

Daily Weather History Graph

Daily Weather History Graph

Search for Another Location

Airport or City:

Astronomy

Jan. 25, 2019 Rise Set
Actual Time 7:50 AM AKST 4:08 PM AKST
Civil Twilight 7:09 AM AKST 4:49 PM AKST
Nautical Twilight 6:24 AM AKST 5:34 PM AKST
Astronomical Twilight 5:41 AM AKST 6:17 PM AKST
Moon 10:43 PM AKST (1/25) 10:13 AM AKST (1/25)
Length of Visible Light 9h 40m
Length of Day
8h 17m
Waning Gibbous, 72% of the Moon is Illuminated
Jan 25
Waning Gibbous
Jan 27
Last Quarter
Feb 4
New
Feb 12
First Quarter
Feb 19
Full

Hourly Weather History & Observations

Time (AKST) Temp. Windchill Dew Point Humidity Pressure Visibility Wind Dir Wind Speed Gust Speed Precip Events Conditions
12:04 AM 43.0 °F 36.4 °F 43.0 °F 100% 30.29 in 1.8 mi SE 12.7 mph - 0.02 in Rain Light Rain
12:44 AM 44.1 °F 36.2 °F 43.0 °F 96% 30.28 in 2.5 mi SE 18.4 mph - 0.06 in Rain Light Rain
12:50 AM 44.6 °F 37.4 °F 42.8 °F 93% 30.28 in 3.0 mi SE 16.1 mph 23.0 mph 0.07 in Rain Light Rain
12:53 AM 44.1 °F 35.9 °F 42.1 °F 93% 30.28 in 4.0 mi SE 19.6 mph 25.3 mph 0.07 in Rain Light Rain
1:33 AM 44.1 °F 36.5 °F 42.1 °F 93% 30.25 in 10.0 mi SE 17.3 mph - 0.00 in   Overcast
1:53 AM 44.1 °F 37.1 °F 42.1 °F 93% 30.26 in 8.0 mi SE 15.0 mph 24.2 mph 0.00 in   Overcast
2:19 AM 44.1 °F 36.2 °F 42.1 °F 93% 30.25 in 2.5 mi SE 18.4 mph - 0.00 in Rain Light Rain
2:23 AM 44.1 °F 37.1 °F 42.1 °F 93% 30.24 in 2.0 mi SE 15.0 mph - 0.00 in Rain Light Rain
2:32 AM 44.1 °F 36.5 °F 42.1 °F 93% 30.24 in 2.5 mi SE 17.3 mph - 0.01 in Rain Light Rain
2:40 AM 44.6 °F 37.8 °F 42.8 °F 93% 30.24 in 3.0 mi SSE 15.0 mph - N/A Rain Light Rain
2:53 AM 44.1 °F 36.8 °F 42.1 °F 93% 30.23 in 6.0 mi SSE 16.1 mph 23.0 mph 0.01 in Rain Light Rain
3:09 AM 44.1 °F 36.2 °F 42.1 °F 93% 30.23 in 3.0 mi SE 18.4 mph - 0.04 in Rain Rain
3:53 AM 44.1 °F 37.1 °F 43.0 °F 96% 30.23 in 9.0 mi SSE 15.0 mph - 0.11 in Rain Light Rain
4:00 AM 44.1 °F 36.5 °F 43.0 °F 96% 30.21 in 9.0 mi SE 17.3 mph 23.0 mph 0.00 in Rain Light Rain
4:22 AM 44.1 °F 36.8 °F 43.0 °F 96% 30.18 in 9.0 mi SSE 16.1 mph - 0.02 in Rain Light Rain
4:32 AM 44.1 °F 38.6 °F 43.0 °F 96% 30.21 in 10.0 mi SSE 10.4 mph 21.9 mph 0.02 in Rain Light Rain
4:53 AM 44.1 °F 36.2 °F 42.1 °F 93% 30.21 in 7.0 mi SE 18.4 mph 25.3 mph 0.03 in Rain Light Rain
5:20 AM 44.1 °F 36.2 °F 43.0 °F 96% 30.19 in 4.0 mi SE 18.4 mph 24.2 mph 0.03 in Rain Light Rain
5:53 AM 44.1 °F 37.1 °F 43.0 °F 96% 30.19 in 3.0 mi SSE 15.0 mph - 0.05 in Rain Light Rain
6:14 AM 44.6 °F 37.2 °F 42.8 °F 93% 30.18 in 5.0 mi SE 17.3 mph 24.2 mph N/A Rain Light Rain
6:53 AM 44.6 °F 38.1 °F 42.8 °F 93% 30.19 in 5.0 mi SE 13.8 mph - N/A Rain Light Rain
7:53 AM 45.0 °F 37.9 °F 44.1 °F 97% 30.22 in 5.0 mi SE 16.1 mph 26.5 mph 0.07 in Rain Light Rain
8:53 AM 46.4 °F 39.5 °F 44.6 °F 93% 30.20 in 3.0 mi SE 17.3 mph - N/A Rain Light Rain
9:53 AM 46.4 °F 40.1 °F 44.6 °F 93% 30.22 in 3.0 mi SE 15.0 mph - N/A Rain Light Rain
10:53 AM 46.4 °F 40.4 °F 44.6 °F 93% 30.23 in 3.0 mi SE 13.8 mph - N/A Rain Light Rain
11:53 AM 46.4 °F 41.1 °F 44.6 °F 93% 30.22 in 3.0 mi SE 11.5 mph - N/A Rain Light Rain
12:53 PM 46.4 °F 40.4 °F 44.6 °F 93% 30.22 in 2.0 mi SE 13.8 mph - N/A Rain Light Rain
1:53 PM 46.0 °F 40.2 °F 45.0 °F 96% 30.22 in 2.0 mi SE 12.7 mph - 0.05 in Rain Light Rain
2:53 PM 46.4 °F 39.8 °F 44.6 °F 93% 30.22 in 0.8 mi SE 16.1 mph - N/A Rain Light Rain
3:53 PM 46.4 °F 40.4 °F 44.6 °F 93% 30.22 in 1.0 mi SE 13.8 mph - N/A Rain Light Rain
4:53 PM 46.4 °F 40.7 °F 44.6 °F 93% 30.21 in 1.8 mi SE 12.7 mph - N/A Rain Rain
5:53 PM 46.4 °F 40.7 °F 44.6 °F 93% 30.21 in 1.5 mi SE 12.7 mph - N/A Rain Rain
6:53 PM 46.4 °F 40.1 °F 44.6 °F 93% 30.20 in 2.0 mi SE 15.0 mph - N/A Rain Rain
7:51 PM 46.4 °F 39.8 °F 46.4 °F 100% 30.20 in 1.5 mi SE 16.1 mph 25.3 mph N/A Rain Light Rain
7:53 PM 46.4 °F 39.5 °F 46.4 °F 100% 30.21 in 1.8 mi SE 17.3 mph 25.3 mph N/A Rain Rain
8:51 PM 46.4 °F 39.0 °F 46.4 °F 100% 30.20 in 2.0 mi SE 19.6 mph - 0.12 in Rain Light Rain
8:53 PM 46.4 °F 39.2 °F 46.4 °F 100% 30.20 in 2.0 mi SE 18.4 mph - N/A Rain Light Rain
9:07 PM 46.9 °F - 46.0 °F 97% 30.20 in 3.0 mi SE 19.6 mph 29.9 mph 0.00 in Rain Light Rain
9:14 PM 46.9 °F - 46.0 °F 97% 30.19 in 2.0 mi SE 20.7 mph 27.6 mph 0.01 in Rain Light Rain
9:24 PM 46.9 °F - 46.0 °F 97% 30.19 in 1.8 mi SE 19.6 mph 27.6 mph 0.01 in Rain Light Rain
9:53 PM 46.9 °F - 46.0 °F 97% 30.21 in 1.5 mi SE 18.4 mph - 0.03 in Rain Light Rain
10:17 PM 46.9 °F - 46.0 °F 97% 30.21 in 1.8 mi SE 20.7 mph 31.1 mph 0.03 in Rain Light Rain
10:32 PM 46.9 °F - 46.0 °F 97% 30.21 in 1.8 mi SE 25.3 mph 33.4 mph 0.04 in Rain Light Rain
10:43 PM 46.9 °F - 46.0 °F 97% 30.21 in 1.8 mi SE 23.0 mph 34.5 mph 0.05 in Rain Light Rain
10:51 PM 46.4 °F 38.3 °F 46.4 °F 100% 30.21 in 1.5 mi SE 23.0 mph 32.2 mph 0.05 in Rain Light Rain
10:53 PM 46.9 °F - 46.0 °F 97% 30.22 in 1.5 mi SE 24.2 mph 29.9 mph 0.06 in Rain Light Rain
11:28 PM 46.9 °F - 46.0 °F 97% 30.21 in 1.5 mi SE 24.2 mph 34.5 mph 0.02 in Rain Light Rain
11:45 PM 46.9 °F - 46.0 °F 97% 30.22 in 1.2 mi SE 23.0 mph 29.9 mph 0.03 in Rain Light Rain
11:53 PM 46.9 °F - 46.0 °F 97% 30.21 in 1.5 mi SE 24.2 mph 35.7 mph 0.04 in Rain Light Rain